Regional Weather Roundup
Issued by NWS

Home | Current Version | Previous Version | Text Only | Print | Product List | Glossary On
Versions: 1 2 3 4 5 6 7 8 9 10 11 12 13 14 15 16 17 18 19 20 21 22 23 24 25 26 27 28 29 30 31 32 33 34 35 36 37 38 39 40 41 42 43 44 45 46 47 48 49 50
000
ASHW40 PHFO 111543
RWRHI

WEATHER ROUNDUP FOR HAWAII
NATIONAL WEATHER SERVICE HONOLULU HI
500 AM HST THU FEB 11 2016

THIS IS AN AUTOMATED REPORT THAT HAS NOT BEEN QUALITY CONTROLLED.

NOTE..."FAIR" INDICATES FEW OR NO CLOUDS BELOW 12,000 FEET WITH NO
SIGNIFICANT WEATHER AND/OR OBSTRUCTIONS TO VISIBILITY.

* - THESE SITES REPORT LIMITED FIELDS

HIZ001>004-111600-
KAUAI-NIIHAU-

CITY           SKY/WX    TMP DP  RH WIND       PRES   REMARKS
LIHUE APT      PTCLDY    65  61  87 W6        30.06R
PORT ALLEN*      N/A     64 N/A N/A NE8         N/A
POIPU*           N/A     64 N/A N/A N5          N/A
PRINCEVILLE*     N/A     66 N/A N/A SE2         N/A
KOKOLE POINT*  NOT AVBL
MOLOAA DAIRY*    N/A     66  64  94 CALM        N/A
WAIMEA HTS*      N/A     68  55  64 VRB5        N/A
PUU OPAE*        N/A     59  52  77 E1          N/A
PUU LUA*       NOT AVBL
MAKAHA RIDGE*    N/A     61  59  94 CALM        N/A
$$

HIZ005>011-111600-
OAHU-

CITY           SKY/WX    TMP DP  RH WIND       PRES   REMARKS
HONOLULU       PTCLDY    67  61  81 NW5       30.04R
KALAELOA       CLEAR     56  54  93 CALM      30.06R
KANEOHE MCB    MOCLDY    68  63  84 CALM      30.02S
WHEELER FIELD  FAIR      61  58  88 NW7       30.04R
BELLOWS*         N/A    N/A N/A N/A NE7         N/A
KAHUKU*          N/A    N/A N/A N/A VRB1        N/A
WHEELER*         N/A    N/A N/A N/A N6          N/A
WAIANAE HARBOR   N/A    N/A N/A N/A NE5         N/A
DILLINGHAM*      N/A     61  57  88 MISG        N/A
KAHUKU TRN*      N/A     64  59  82 E2          N/A
KAWAILOA*        N/A     64  59  82 NE3         N/A
KII*             N/A     66  63  88 SE3         N/A
MAKUA RANGE*     N/A     63  54  72 SE6G12      N/A
OAHU FOREST NW NOT AVBL
SCHOFIELD BRK*   N/A     59  57  94 MISG        N/A
SCHOFIELD S*   NOT AVBL
WAIANAE VLY*   NOT AVBL
KUAOKALA*      NOT AVBL
HONOULIUULI*   NOT AVBL
MOKUOLOE IS*   NOT AVBL
PALEHUA*       NOT AVBL
WAIAWA PHB*    NOT AVBL
$$

HIZ012>013-111600-
MOLOKAI-

CITY           SKY/WX    TMP DP  RH WIND       PRES   REMARKS
MOLOKAI AIRPT  CLEAR     68  60  75 NE6       30.05R
KALAUPAPA      NOT AVBL
MAKAPULAPAI*     N/A     72  61  68 E12         N/A
MOLOKAI 1*     NOT AVBL
PUU ALII*        N/A     52  51  98 N2G9        N/A
$$

HIZ016-111600-
KAHOOLAWE-

CITY           SKY/WX    TMP DP  RH WIND       PRES   REMARKS
KAHOOLAWE*       N/A     63 N/A N/A E1          N/A
HAKIOAWA*        N/A     63  57  80 MISG      30.47R
HONOKANAIA*      N/A     70  59  69 N6G16     29.97S
KANELOA*         N/A     66  57  72 E3G13     30.08S
KEALIALALO*    NOT AVBL
LUA MAKIKA*    NOT AVBL
$$

HIZ014>015-111600-
LANAI-

CITY           SKY/WX    TMP DP  RH WIND       PRES   REMARKS
LANAI CITY     FAIR      60  55  83 E6        30.09R
LANAI 1*       NOT AVBL
$$

HIZ017>028-111600-
MAUI-

CITY           SKY/WX    TMP DP  RH WIND       PRES   REMARKS
KAHULUI        CLEAR     59  56  89 CALM      30.05R
KAPALUA-W MAUI NOT AVBL
HANA AIRPORT   NOT AVBL
HANA*            N/A     63 N/A N/A S5          N/A
HALEAKALA SUMM   N/A     43   0  16 N12         N/A
MAALAEA BAY*     N/A     68 N/A N/A N9G15       N/A
HALEAKALA*     NOT AVBL
KAUPO GAP*       N/A     52  36  54 N7          N/A
KULA 1*          N/A    N/A N/A N/A E5          N/A
$$

HIZ023>026-111600-
BIG ISLAND OF HAWAII COAST AND LOWER SLOPES-

CITY           SKY/WX    TMP DP  RH WIND       PRES   REMARKS
KAILUA KONA    NOT AVBL
HILO           CLEAR     62  53  72 SW7       30.04R
HONOKAA*         N/A     59 N/A N/A VRB1        N/A
KAWAIHAE MWT*    N/A     68 N/A N/A E1          N/A
KAWAIHAE*      NOT AVBL
SOUTH POINT*     N/A     59 N/A N/A NW6         N/A
UPOLU AIRPORT*   N/A    N/A N/A N/A E9          N/A
KAMUELA*       NOT AVBL
HAKALAU*         N/A    N/A N/A N/A W5          N/A
KALOKO-HONOKO*   N/A     70  57  64 CALM        N/A
PALI 2*          N/A     55  52  88 N10         N/A
KEALAKOMO*       N/A     70  57  64 N15G22      N/A
KAUPULEHU*     NOT AVBL
KAPAPALA*        N/A     51  49  93 N5          N/A
LOWER KAHUKU*    N/A     46 N/A N/A N3          N/A
PUHE CS*         N/A     66  48  52 E5          N/A
PUHO CS*         N/A     66  52  60 E3          N/A
PTA KEAMUKU*     N/A     46  37  71 CALM        N/A
WAIKOLOA*        N/A     61  50  67 E12G17      N/A
$$

HIZ027>028-111600-
BIG ISLAND OF HAWAII INTERIOR AND SUMMMITS-

CITY           SKY/WX    TMP DP  RH WIND       PRES   REMARKS
BRADSHAW FIELD CLOUDY    42  17  35 SE6       30.28R
MK VISITOR CEN   N/A     41 -11  10 VRB2        N/A
MAUNA KEA*       N/A     36 -24   7 N31         N/A  WCI  22
MAUNA LOA*       N/A     41 -42   2 MISG        N/A
MAUNA LOA 1*   NOT AVBL
PTA KIPUKA*      N/A    N/A N/A N/A E3          N/A
PTA RANGE 17*    N/A    N/A N/A N/A E6G12       N/A
PTA WEST*        N/A     70  45  40 SE13        N/A
NENE CABIN*      N/A     37  12  35 N6          N/A
AHUMOA*          N/A    N/A N/A N/A E9          N/A
PTA PORTABLE*  NOT AVBL
PUU MALI*        N/A    N/A N/A N/A S3          N/A
$$

HIC003-111600-
NORTHWEST ISLANDS-

CITY           SKY/WX    TMP DP  RH WIND       PRES   REMARKS
MIDWAY ISLAND  MOCLDY    70  68  94 SW16      29.84F
MIDWAY NOS*    NOT AVBL
FRENCH FRIGATE NOT AVBL
$$

PHZ110>124-180-111600-
BUOY REPORTS

STATION/POSITION TIME  TEMP    WIND        PRES    WAVE   SWELL
                       AIR SEA DIR/SP/G            HT/PER HT/DIR
                 (UTC) (F)     (DEG/KT/KT) (MB)    (FT/S) (FT/D)
BUOY 51001       NOT AVBL
BUOY 51101       NOT AVBL
BUOY 51100       NOT AVBL
BUOY 51002       NOT AVBL
BUOY 51003       NOT AVBL
BUOY 51004       NOT AVBL
BARBERS PT BUOY  NOT AVBL
WAIMEA BAY BUOY  1504      78                N/A    12/17  11/320
KAILUA BAY BUOY  1511      77                N/A     9/18   8/360
LANAI BUOY       NOT AVBL
BARBERS PT 2     1503      78                N/A     6/18   5/310
PAUWELA MAUI     1507      76                N/A    11/17  10/330
HILO             NOT AVBL
KANEOHE BAY BUOY 1506      76                N/A     7/18   5/360
HANALEI KAUAI    1501      77                N/A    13/17  11/320
KAHULUI HARBOR   NOT AVBL
HONOLULU HARBOR  1500   68 76  110/  1/  2 1017.9R
KILO NALU        NOT AVBL
HILO HARBOR      1500   65 76  220/  6/  7 1017.0R
MOKUOLOE         1400   69 76  220/  1/  1 1017.1S
NAWILIWILI       1500   64 77  270/  4/  5 1017.6R
WHOTS BUOY       NOT AVBL
BUOY 51028       NOT AVBL
$$

......................KEY........................................
  SKY/WX - SKY CONDITIONS/PRESENT WEATHER
  TMP    - TEMPERATURE IN FAHRENHEIT
  DWPT   - DEWPOINT IN FAHRENHEIT
  RH     - RELATIVE HUMIDITY IN PERCENT
  WIND   - DIRECTION AND SPEED /MPH FOR ISLANDS...KTS FOR BUOYS/
  PRES   - MEAN SEA LEVEL PRESSURE IN INCHES OF HG
  VSB    - VISIBILITY IN MILES
  HX     - HEAT INDEX
  WCI    - WIND CHILL INDEX
  VRB    - VARIABLE WIND DIRECTION
  N/A    - NOT AVAILABLE



USA.gov is the U.S. government's official web portal to all federal, state and local government web resources and services.